Tracking 29932 objects as of 3-Dec-2024
HD Live streaming from Space Station
objects crossing your sky now

STARLINK-31042

Track STARLINK-31042 now!
10-day predictions
STARLINK-31042 is classified as:


NORAD ID: 58739
Int'l Code: 2024-005M
Perigee: 565.5 km
Apogee: 567.0 km
Inclination: 43.0 °
Period: 95.8 minutes
Semi major axis: 6937 km
RCS: Unknown
Launch date: January 7, 2024
Source: United States (US)
Launch site: AIR FORCE EASTERN TEST RANGE (AFETR)
Your satellite tracking list
Your tracking list is empty




NASA's NSSDC Master Catalog

Two Line Element Set (TLE):
1 58739U 24005M   24337.36268204  .00000983  00000-0  87849-4 0  9993
2 58739  43.0042 213.9478 0001100 270.9616  89.1101 15.02535778 50877
Source of the keplerian elements: AFSPC